Time,TemperatureF,DewpointF,PressureIn,WindDirection,WindDirectionDegrees,WindSpeedMPH,WindSpeedGustMPH,Humidity,HourlyPrecipIn,Conditions,Clouds,dailyrainin,SoftwareType,DateUTC
2013-02-19 00:01:00,21.8,14.4,29.99,NW,315,5.4,9.4,73,0.00,,,0.00,WUHU216HW,2013-02-19 06:01:00,
2013-02-19 00:06:00,21.6,14.2,30.00,NE,45,5.6,9.4,73,0.00,,,0.00,WUHU216HW,2013-02-19 06:06:00,
2013-02-19 00:11:00,21.4,14.0,30.00,North,0,4.7,10.7,73,0.00,,,0.00,WUHU216HW,2013-02-19 06:11:00,
2013-02-19 00:16:00,21.2,13.9,30.00,West,270,6.5,10.7,73,0.00,,,0.00,WUHU216HW,2013-02-19 06:16:00,
2013-02-19 00:21:00,21.2,13.6,30.01,SE,135,10.3,10.3,72,0.00,,,0.00,WUHU216HW,2013-02-19 06:21:00,
2013-02-19 00:26:00,20.9,13.2,30.01,NNW,338,4.0,10.3,72,0.00,,,0.00,WUHU216HW,2013-02-19 06:26:00,
2013-02-19 00:31:00,20.5,12.2,30.01,NNW,338,7.8,10.5,70,0.00,,,0.00,WUHU216HW,2013-02-19 06:31:00,
2013-02-19 00:36:00,20.3,12.3,30.01,WNW,293,4.5,10.5,71,0.00,,,0.00,WUHU216HW,2013-02-19 06:36:00,
2013-02-19 00:41:00,19.8,12.2,30.01,WNW,293,4.7,9.6,72,0.00,,,0.00,WUHU216HW,2013-02-19 06:41:00,
2013-02-19 00:46:00,19.3,11.6,30.02,North,0,4.5,6.7,72,0.00,,,0.00,WUHU216HW,2013-02-19 06:46:00,
2013-02-19 00:51:00,18.7,11.1,30.01,NNW,338,9.2,9.2,72,0.00,,,0.00,WUHU216HW,2013-02-19 06:51:00,
2013-02-19 00:56:00,18.4,10.4,30.02,NW,315,7.6,9.2,71,0.00,,,0.00,WUHU216HW,2013-02-19 06:56:00,
2013-02-19 01:01:00,18.2,10.4,30.02,North,0,4.7,8.5,71,0.00,,,0.00,WUHU216HW,2013-02-19 07:01:00,
2013-02-19 01:06:00,17.8,10.3,30.02,WNW,293,2.5,7.6,72,0.00,,,0.00,WUHU216HW,2013-02-19 07:06:00,
2013-02-19 01:11:00,17.6,9.8,30.03,West,270,2.7,6.9,71,0.00,,,0.00,WUHU216HW,2013-02-19 07:11:00,
2013-02-19 01:16:00,17.6,9.8,30.03,North,0,6.9,6.9,71,0.00,,,0.00,WUHU216HW,2013-02-19 07:16:00,
2013-02-19 01:21:00,17.5,9.6,30.03,SSW,203,1.8,7.6,71,0.00,,,0.00,WUHU216HW,2013-02-19 07:21:00,
2013-02-19 01:26:00,17.3,9.2,30.03,NNE,23,7.6,9.2,70,0.00,,,0.00,WUHU216HW,2013-02-19 07:26:00,
2013-02-19 01:31:00,17.3,9.2,30.04,West,270,4.7,9.2,70,0.00,,,0.00,WUHU216HW,2013-02-19 07:31:00,
2013-02-19 01:36:00,16.9,9.1,30.04,WNW,293,8.5,8.5,71,0.00,,,0.00,WUHU216HW,2013-02-19 07:36:00,
2013-02-19 01:41:00,16.7,8.9,30.04,WNW,293,4.5,8.5,71,0.00,,,0.00,WUHU216HW,2013-02-19 07:41:00,
2013-02-19 01:46:00,16.6,9.1,30.04,West,270,4.0,8.5,72,0.00,,,0.00,WUHU216HW,2013-02-19 07:46:00,
2013-02-19 01:51:00,16.2,8.7,30.04,NNW,338,3.4,7.2,72,0.00,,,0.00,WUHU216HW,2013-02-19 07:51:00,
2013-02-19 01:56:00,16.2,8.7,30.05,WNW,293,3.6,7.6,72,0.00,,,0.00,WUHU216HW,2013-02-19 07:56:00,
2013-02-19 02:01:00,16.0,8.6,30.05,WNW,293,2.5,7.6,72,0.00,,,0.00,WUHU216HW,2013-02-19 08:01:00,
2013-02-19 02:06:00,16.0,8.6,30.04,NNW,338,6.0,8.3,72,0.00,,,0.00,WUHU216HW,2013-02-19 08:06:00,
2013-02-19 02:11:00,15.8,8.0,30.04,ENE,68,6.9,10.1,71,0.00,,,0.00,WUHU216HW,2013-02-19 08:11:00,
2013-02-19 02:16:00,15.5,7.8,30.05,NW,315,4.5,10.1,71,0.00,,,0.00,WUHU216HW,2013-02-19 08:16:00,
2013-02-19 02:21:00,15.5,7.4,30.05,WNW,293,6.7,12.8,70,0.00,,,0.00,WUHU216HW,2013-02-19 08:21:00,
2013-02-19 02:26:00,15.1,6.8,30.05,NNW,338,4.9,12.8,69,0.00,,,0.00,WUHU216HW,2013-02-19 08:26:00,
2013-02-19 02:31:00,14.8,7.0,30.05,NNE,23,7.6,9.8,71,0.00,,,0.00,WUHU216HW,2013-02-19 08:31:00,
2013-02-19 02:36:00,14.8,7.0,30.06,NNW,338,6.5,9.8,71,0.00,,,0.00,WUHU216HW,2013-02-19 08:36:00,
2013-02-19 02:41:00,14.4,7.0,30.06,North,0,4.9,9.8,72,0.00,,,0.00,WUHU216HW,2013-02-19 08:41:00,
2013-02-19 02:46:00,14.2,7.1,30.06,WSW,248,5.4,9.8,73,0.00,,,0.00,WUHU216HW,2013-02-19 08:46:00,
2013-02-19 02:52:00,14.0,7.6,30.06,NNW,338,4.0,9.8,75,0.00,,,0.00,WUHU216HW,2013-02-19 08:52:00,
2013-02-19 02:56:00,13.9,7.7,30.06,NNW,338,2.5,6.9,76,0.00,,,0.00,WUHU216HW,2013-02-19 08:56:00,
2013-02-19 03:01:00,13.7,7.5,30.06,North,0,1.8,6.7,76,0.00,,,0.00,WUHU216HW,2013-02-19 09:01:00,
2013-02-19 03:06:00,13.3,7.1,30.06,North,0,4.9,7.6,76,0.00,,,0.00,WUHU216HW,2013-02-19 09:06:00,
2013-02-19 03:11:00,13.3,7.1,30.06,WNW,293,3.4,7.6,76,0.00,,,0.00,WUHU216HW,2013-02-19 09:11:00,
2013-02-19 03:16:00,13.1,6.9,30.06,WNW,293,3.6,6.9,76,0.00,,,0.00,WUHU216HW,2013-02-19 09:16:00,
2013-02-19 03:21:00,13.0,6.8,30.06,SSW,203,4.9,4.9,76,0.00,,,0.00,WUHU216HW,2013-02-19 09:21:00,
2013-02-19 03:26:00,12.8,6.6,30.07,NNE,23,4.0,5.4,76,0.00,,,0.00,WUHU216HW,2013-02-19 09:26:00,
2013-02-19 03:31:00,12.6,6.1,30.07,WNW,293,5.6,8.7,75,0.00,,,0.00,WUHU216HW,2013-02-19 09:31:00,
2013-02-19 03:36:00,12.6,5.9,30.07,NNW,338,4.7,8.7,74,0.00,,,0.00,WUHU216HW,2013-02-19 09:36:00,
2013-02-19 03:41:00,12.4,5.7,30.08,WNW,293,2.7,8.3,74,0.00,,,0.00,WUHU216HW,2013-02-19 09:41:00,
2013-02-19 03:46:00,12.4,5.9,30.08,WNW,293,3.4,8.3,75,0.00,,,0.00,WUHU216HW,2013-02-19 09:46:00,
2013-02-19 03:51:00,12.1,5.6,30.08,NNW,338,2.0,5.1,75,0.00,,,0.00,WUHU216HW,2013-02-19 09:51:00,
2013-02-19 03:56:00,11.9,5.4,30.08,North,0,2.2,5.1,75,0.00,,,0.00,WUHU216HW,2013-02-19 09:56:00,
2013-02-19 04:02:00,11.9,5.4,30.08,WNW,293,6.3,7.6,75,0.00,,,0.00,WUHU216HW,2013-02-19 10:02:00,
2013-02-19 04:07:00,11.7,5.2,30.08,North,0,2.9,7.6,75,0.00,,,0.00,WUHU216HW,2013-02-19 10:07:00,
2013-02-19 04:12:00,11.5,5.0,30.08,WNW,293,2.5,6.7,75,0.00,,,0.00,WUHU216HW,2013-02-19 10:12:00,
2013-02-19 04:17:00,11.5,5.0,30.08,West,270,2.5,8.3,75,0.00,,,0.00,WUHU216HW,2013-02-19 10:17:00,
2013-02-19 04:22:00,11.2,4.7,30.09,WNW,293,3.8,8.3,75,0.00,,,0.00,WUHU216HW,2013-02-19 10:22:00,
2013-02-19 04:27:00,11.2,4.7,30.09,North,0,3.1,8.1,75,0.00,,,0.00,WUHU216HW,2013-02-19 10:27:00,
2013-02-19 04:32:00,11.2,4.7,30.09,NW,315,4.7,8.1,75,0.00,,,0.00,WUHU216HW,2013-02-19 10:32:00,
2013-02-19 04:37:00,11.0,4.5,30.09,NE,45,3.6,9.2,75,0.00,,,0.00,WUHU216HW,2013-02-19 10:37:00,
2013-02-19 04:42:00,10.8,4.1,30.09,North,0,4.7,9.2,74,0.00,,,0.00,WUHU216HW,2013-02-19 10:42:00,
2013-02-19 04:47:00,10.8,4.1,30.09,NNE,23,8.7,9.6,74,0.00,,,0.00,WUHU216HW,2013-02-19 10:47:00,
2013-02-19 04:52:00,10.6,3.6,30.10,South,180,4.7,9.6,73,0.00,,,0.00,WUHU216HW,2013-02-19 10:52:00,
2013-02-19 04:57:00,10.6,3.6,30.10,NNE,23,2.5,9.2,73,0.00,,,0.00,WUHU216HW,2013-02-19 10:57:00,
2013-02-19 05:02:00,10.4,3.7,30.11,North,0,6.5,9.2,74,0.00,,,0.00,WUHU216HW,2013-02-19 11:02:00,
2013-02-19 05:07:00,10.4,3.7,30.11,WNW,293,4.0,6.5,74,0.00,,,0.00,WUHU216HW,2013-02-19 11:07:00,
2013-02-19 05:12:00,10.4,3.7,30.11,NNW,338,2.5,6.7,74,0.00,,,0.00,WUHU216HW,2013-02-19 11:12:00,
2013-02-19 05:17:00,10.3,3.3,30.11,NW,315,2.7,8.7,73,0.00,,,0.00,WUHU216HW,2013-02-19 11:17:00,
2013-02-19 05:22:00,10.3,3.3,30.12,North,0,2.2,8.7,73,0.00,,,0.00,WUHU216HW,2013-02-19 11:22:00,
2013-02-19 05:27:00,10.1,3.3,30.12,North,0,3.6,6.9,74,0.00,,,0.00,WUHU216HW,2013-02-19 11:27:00,
2013-02-19 05:32:00,9.9,3.2,30.12,North,0,5.8,7.6,74,0.00,,,0.00,WUHU216HW,2013-02-19 11:32:00,
2013-02-19 05:37:00,9.9,3.2,30.12,North,0,5.4,7.6,74,0.00,,,0.00,WUHU216HW,2013-02-19 11:37:00,
2013-02-19 05:42:00,9.7,3.1,30.11,North,0,3.4,8.3,74,0.00,,,0.00,WUHU216HW,2013-02-19 11:42:00,
2013-02-19 05:47:00,9.7,2.7,30.11,WNW,293,5.4,8.5,73,0.00,,,0.00,WUHU216HW,2013-02-19 11:47:00,
2013-02-19 05:52:00,9.7,2.7,30.11,North,0,4.5,8.5,73,0.00,,,0.00,WUHU216HW,2013-02-19 11:52:00,
2013-02-19 05:57:00,9.7,2.7,30.12,NNW,338,5.6,8.7,73,0.00,,,0.00,WUHU216HW,2013-02-19 11:57:00,
2013-02-19 06:02:00,9.7,2.7,30.12,NNE,23,6.7,8.7,73,0.00,,,0.00,WUHU216HW,2013-02-19 12:02:00,
2013-02-19 06:07:00,9.5,2.6,30.13,NNE,23,5.8,7.4,73,0.00,,,0.00,WUHU216HW,2013-02-19 12:07:00,
2013-02-19 06:12:00,9.5,2.9,30.13,NW,315,2.5,7.4,74,0.00,,,0.00,WUHU216HW,2013-02-19 12:12:00,
2013-02-19 06:17:00,9.5,2.9,30.13,West,270,7.8,7.8,74,0.00,,,0.00,WUHU216HW,2013-02-19 12:17:00,
2013-02-19 06:22:00,9.5,2.9,30.13,West,270,4.0,7.8,74,0.00,,,0.00,WUHU216HW,2013-02-19 12:22:00,
2013-02-19 06:27:00,9.5,2.9,30.13,WNW,293,4.0,7.6,74,0.00,,,0.00,WUHU216HW,2013-02-19 12:27:00,
2013-02-19 06:32:00,9.5,2.9,30.13,West,270,6.9,7.6,74,0.00,,,0.00,WUHU216HW,2013-02-19 12:32:00,
2013-02-19 06:37:00,9.4,2.4,30.13,NNW,338,4.0,7.4,73,0.00,,,0.00,WUHU216HW,2013-02-19 12:37:00,
2013-02-19 06:42:00,9.4,2.4,30.13,NNW,338,6.9,10.3,73,0.00,,,0.00,WUHU216HW,2013-02-19 12:42:00,
2013-02-19 06:47:00,9.4,2.4,30.13,West,270,6.0,10.3,73,0.00,,,0.00,WUHU216HW,2013-02-19 12:47:00,
2013-02-19 06:52:00,9.4,2.4,30.14,NNW,338,6.7,6.9,73,0.00,,,0.00,WUHU216HW,2013-02-19 12:52:00,
2013-02-19 06:57:00,9.2,2.3,30.14,West,270,3.1,8.5,73,0.00,,,0.00,WUHU216HW,2013-02-19 12:57:00,
2013-02-19 07:02:00,9.0,2.1,30.14,NNW,338,5.6,8.5,73,0.00,,,0.00,WUHU216HW,2013-02-19 13:02:00,
2013-02-19 07:07:00,9.0,2.3,30.14,SSW,203,2.7,6.9,74,0.00,,,0.00,WUHU216HW,2013-02-19 13:07:00,
2013-02-19 07:12:00,9.0,2.3,30.15,NW,315,2.0,6.9,74,0.00,,,0.00,WUHU216HW,2013-02-19 13:12:00,
2013-02-19 07:17:00,9.0,2.1,30.15,WNW,293,4.0,7.6,73,0.00,,,0.00,WUHU216HW,2013-02-19 13:17:00,
2013-02-19 07:22:00,8.8,1.9,30.15,NNE,23,4.0,8.9,73,0.00,,,0.00,WUHU216HW,2013-02-19 13:22:00,
2013-02-19 07:27:00,8.8,1.9,30.16,SW,225,5.6,8.9,73,0.00,,,0.00,WUHU216HW,2013-02-19 13:27:00,
2013-02-19 07:32:00,8.8,1.9,30.17,NNW,338,4.9,8.7,73,0.00,,,0.00,WUHU216HW,2013-02-19 13:32:00,
2013-02-19 07:37:00,8.8,1.9,30.18,West,270,2.5,8.7,73,0.00,,,0.00,WUHU216HW,2013-02-19 13:37:00,
2013-02-19 07:42:00,9.0,2.1,30.19,West,270,4.3,6.9,73,0.00,,,0.00,WUHU216HW,2013-02-19 13:42:00,
2013-02-19 07:47:00,8.8,1.9,30.19,NW,315,1.6,5.6,73,0.00,,,0.00,WUHU216HW,2013-02-19 13:47:00,
2013-02-19 07:52:00,8.8,1.9,30.19,NNW,338,4.0,5.4,73,0.00,,,0.00,WUHU216HW,2013-02-19 13:52:00,
2013-02-19 07:57:00,9.0,2.1,30.19,NNW,338,3.1,5.6,73,0.00,,,0.00,WUHU216HW,2013-02-19 13:57:00,
2013-02-19 08:02:00,9.4,2.7,30.19,NNE,23,5.4,5.8,74,0.00,,,0.00,WUHU216HW,2013-02-19 14:02:00,
2013-02-19 08:07:00,9.2,2.3,30.19,North,0,4.0,11.4,73,0.00,,,0.00,WUHU216HW,2013-02-19 14:07:00,
2013-02-19 08:12:00,9.0,1.8,30.19,WNW,293,2.7,11.4,72,0.00,,,0.00,WUHU216HW,2013-02-19 14:12:00,
2013-02-19 08:17:00,9.0,1.5,30.19,North,0,6.5,11.4,71,0.00,,,0.00,WUHU216HW,2013-02-19 14:17:00,
2013-02-19 08:22:00,9.0,1.3,30.20,North,0,7.4,11.4,70,0.00,,,0.00,WUHU216HW,2013-02-19 14:22:00,
2013-02-19 08:27:00,9.0,1.3,30.20,NNW,338,6.7,11.4,70,0.00,,,0.00,WUHU216HW,2013-02-19 14:27:00,
2013-02-19 08:32:00,9.4,1.8,30.20,WNW,293,1.6,8.9,71,0.00,,,0.00,WUHU216HW,2013-02-19 14:32:00,
2013-02-19 08:37:00,9.0,1.3,30.21,North,0,6.7,11.4,70,0.00,,,0.00,WUHU216HW,2013-02-19 14:37:00,
2013-02-19 08:42:00,8.8,1.1,30.21,WNW,293,4.9,11.4,70,0.00,,,0.00,WUHU216HW,2013-02-19 14:42:00,
2013-02-19 08:47:00,9.0,1.5,30.21,North,0,4.5,9.2,71,0.00,,,0.00,WUHU216HW,2013-02-19 14:47:00,
2013-02-19 08:52:00,9.5,1.7,30.22,West,270,4.9,7.6,70,0.00,,,0.00,WUHU216HW,2013-02-19 14:52:00,
2013-02-19 08:57:00,9.7,1.9,30.22,ENE,68,5.4,8.9,70,0.00,,,0.00,WUHU216HW,2013-02-19 14:57:00,
2013-02-19 09:02:00,10.1,2.2,30.22,West,270,4.7,8.9,70,0.00,,,0.00,WUHU216HW,2013-02-19 15:02:00,
2013-02-19 09:07:00,10.4,2.5,30.22,North,0,6.5,7.4,70,0.00,,,0.00,WUHU216HW,2013-02-19 15:07:00,
2013-02-19 09:12:00,10.4,1.9,30.22,East,90,5.6,10.7,68,0.00,,,0.00,WUHU216HW,2013-02-19 15:12:00,
2013-02-19 09:17:00,10.3,1.7,30.22,NNW,338,4.0,11.0,68,0.00,,,0.00,WUHU216HW,2013-02-19 15:17:00,
2013-02-19 09:22:00,10.4,1.9,30.22,North,0,8.9,11.0,68,0.00,,,0.00,WUHU216HW,2013-02-19 15:22:00,
2013-02-19 09:27:00,11.0,2.4,30.22,WNW,293,8.3,9.6,68,0.00,,,0.00,WUHU216HW,2013-02-19 15:27:00,
2013-02-19 09:32:00,10.8,1.9,30.22,West,270,6.3,9.8,67,0.00,,,0.00,WUHU216HW,2013-02-19 15:32:00,
2013-02-19 09:37:00,11.0,2.1,30.22,WSW,248,6.3,11.6,67,0.00,,,0.00,WUHU216HW,2013-02-19 15:37:00,
2013-02-19 09:42:00,10.6,1.5,30.22,North,0,10.3,11.6,66,0.00,,,0.00,WUHU216HW,2013-02-19 15:42:00,
2013-02-19 09:47:00,11.2,1.9,30.22,NNW,338,6.9,10.3,66,0.00,,,0.00,WUHU216HW,2013-02-19 15:47:00,
2013-02-19 09:52:00,11.5,1.9,30.22,NNE,23,5.4,10.3,65,0.00,,,0.00,WUHU216HW,2013-02-19 15:52:00,
2013-02-19 09:57:00,11.9,2.3,30.22,NNW,338,4.3,9.8,65,0.00,,,0.00,WUHU216HW,2013-02-19 15:57:00,
2013-02-19 10:02:00,12.6,3.3,30.22,NNW,338,2.5,8.5,66,0.00,,,0.00,WUHU216HW,2013-02-19 16:02:00,
2013-02-19 10:07:00,12.6,3.3,30.22,WSW,248,6.9,7.4,66,0.00,,,0.00,WUHU216HW,2013-02-19 16:07:00,
2013-02-19 10:12:00,12.4,2.8,30.22,NNW,338,2.9,10.5,65,0.00,,,0.00,WUHU216HW,2013-02-19 16:12:00,
2013-02-19 10:17:00,14.0,4.1,30.22,WNW,293,4.7,10.5,64,0.00,,,0.00,WUHU216HW,2013-02-19 16:17:00,
2013-02-19 10:22:00,14.2,3.5,30.22,WSW,248,6.3,8.7,62,0.00,,,0.00,WUHU216HW,2013-02-19 16:22:00,
2013-02-19 10:27:00,14.8,4.1,30.22,SSW,203,2.5,8.7,62,0.00,,,0.00,WUHU216HW,2013-02-19 16:27:00,
2013-02-19 10:32:00,14.8,3.3,30.23,WNW,293,8.5,8.5,60,0.00,,,0.00,WUHU216HW,2013-02-19 16:32:00,
2013-02-19 10:37:00,14.6,3.2,30.23,North,0,4.0,10.1,60,0.00,,,0.00,WUHU216HW,2013-02-19 16:37:00,
2013-02-19 10:42:00,14.8,3.7,30.23,NW,315,3.6,11.0,61,0.00,,,0.00,WUHU216HW,2013-02-19 16:42:00,
2013-02-19 10:47:00,15.5,4.3,30.23,West,270,2.9,11.0,61,0.00,,,0.00,WUHU216HW,2013-02-19 16:47:00,
2013-02-19 10:52:00,16.0,4.9,30.23,West,270,7.2,8.9,61,0.00,,,0.00,WUHU216HW,2013-02-19 16:52:00,
2013-02-19 10:57:00,15.7,4.1,30.23,NW,315,5.1,10.3,60,0.00,,,0.00,WUHU216HW,2013-02-19 16:57:00,
2013-02-19 11:02:00,16.2,4.7,30.23,SSW,203,2.2,10.3,60,0.00,,,0.00,WUHU216HW,2013-02-19 17:02:00,
2013-02-19 11:07:00,16.6,4.2,30.24,NW,315,5.4,8.7,58,0.00,,,0.00,WUHU216HW,2013-02-19 17:07:00,
2013-02-19 11:12:00,16.7,4.9,30.24,NNW,338,2.5,8.7,59,0.00,,,0.00,WUHU216HW,2013-02-19 17:12:00,
2013-02-19 11:17:00,17.3,5.0,30.24,NNW,338,3.1,8.1,58,0.00,,,0.00,WUHU216HW,2013-02-19 17:17:00,
2013-02-19 11:22:00,17.3,5.0,30.24,WNW,293,5.4,8.5,58,0.00,,,0.00,WUHU216HW,2013-02-19 17:22:00,
2013-02-19 11:27:00,17.5,5.1,30.24,WNW,293,3.6,8.5,58,0.00,,,0.00,WUHU216HW,2013-02-19 17:27:00,
2013-02-19 11:32:00,18.0,4.9,30.24,West,270,2.5,8.5,56,0.00,,,0.00,WUHU216HW,2013-02-19 17:32:00,
2013-02-19 11:37:00,18.2,5.4,30.24,NW,315,2.5,9.8,57,0.00,,,0.00,WUHU216HW,2013-02-19 17:37:00,
2013-02-19 11:42:00,18.2,4.6,30.24,NNE,23,2.9,9.8,55,0.00,,,0.00,WUHU216HW,2013-02-19 17:42:00,
2013-02-19 11:47:00,18.7,5.1,30.23,West,270,4.7,8.9,55,0.00,,,0.00,WUHU216HW,2013-02-19 17:47:00,
2013-02-19 11:52:00,18.5,4.6,30.23,North,0,5.8,7.8,54,0.00,,,0.00,WUHU216HW,2013-02-19 17:52:00,
2013-02-19 11:57:00,18.7,4.7,30.23,NNE,23,4.0,7.8,54,0.00,,,0.00,WUHU216HW,2013-02-19 17:57:00,
2013-02-19 12:02:00,19.8,6.1,30.23,North,0,5.1,7.6,55,0.00,,,0.00,WUHU216HW,2013-02-19 18:02:00,
2013-02-19 12:07:00,19.1,4.2,30.23,East,90,6.9,9.4,52,0.00,,,0.00,WUHU216HW,2013-02-19 18:07:00,
2013-02-19 12:12:00,19.4,5.0,30.23,WNW,293,2.5,9.4,53,0.00,,,0.00,WUHU216HW,2013-02-19 18:12:00,
2013-02-19 12:17:00,20.2,6.0,30.23,North,0,4.5,8.5,54,0.00,,,0.00,WUHU216HW,2013-02-19 18:17:00,
2013-02-19 12:22:00,19.8,5.3,30.23,WNW,293,6.7,11.6,53,0.00,,,0.00,WUHU216HW,2013-02-19 18:22:00,
2013-02-19 12:27:00,20.2,5.2,30.23,NNE,23,6.9,11.6,52,0.00,,,0.00,WUHU216HW,2013-02-19 18:27:00,
2013-02-19 12:32:00,20.9,5.5,30.23,NNE,23,3.8,9.4,51,0.00,,,0.00,WUHU216HW,2013-02-19 18:32:00,
2013-02-19 12:37:00,21.1,5.2,30.23,North,0,4.7,10.7,50,0.00,,,0.00,WUHU216HW,2013-02-19 18:37:00,
2013-02-19 12:42:00,21.1,4.8,30.23,NNW,338,7.6,10.7,49,0.00,,,0.00,WUHU216HW,2013-02-19 18:42:00,
2013-02-19 12:47:00,21.6,5.3,30.23,NNW,338,4.7,9.2,49,0.00,,,0.00,WUHU216HW,2013-02-19 18:47:00,
2013-02-19 12:52:00,21.2,4.5,30.23,WNW,293,4.7,9.2,48,0.00,,,0.00,WUHU216HW,2013-02-19 18:52:00,
2013-02-19 12:57:00,21.2,4.5,30.23,WNW,293,6.7,9.2,48,0.00,,,0.00,WUHU216HW,2013-02-19 18:57:00,
2013-02-19 13:02:00,21.2,4.0,30.23,WNW,293,3.6,9.8,47,0.00,,,0.00,WUHU216HW,2013-02-19 19:02:00,
2013-02-19 13:07:00,21.6,4.9,30.23,WNW,293,7.6,9.8,48,0.00,,,0.00,WUHU216HW,2013-02-19 19:07:00,
2013-02-19 13:12:00,22.1,5.3,30.23,NW,315,2.9,7.6,48,0.00,,,0.00,WUHU216HW,2013-02-19 19:12:00,
2013-02-19 13:17:00,22.7,4.4,30.22,WNW,293,3.4,7.6,45,0.00,,,0.00,WUHU216HW,2013-02-19 19:17:00,
2013-02-19 13:22:00,22.5,4.2,30.22,NW,315,5.1,9.4,45,0.00,,,0.00,WUHU216HW,2013-02-19 19:22:00,
2013-02-19 13:27:00,22.3,4.6,30.22,South,180,4.0,9.4,46,0.00,,,0.00,WUHU216HW,2013-02-19 19:27:00,
2013-02-19 13:32:00,22.5,3.3,30.22,WNW,293,4.0,7.8,43,0.00,,,0.00,WUHU216HW,2013-02-19 19:32:00,
2013-02-19 13:37:00,22.5,3.8,30.22,NNW,338,4.5,7.8,44,0.00,,,0.00,WUHU216HW,2013-02-19 19:37:00,
2013-02-19 13:42:00,22.7,4.4,30.22,SSW,203,4.3,7.6,45,0.00,,,0.00,WUHU216HW,2013-02-19 19:42:00,
2013-02-19 13:47:00,22.7,4.0,30.22,WNW,293,5.4,7.6,44,0.00,,,0.00,WUHU216HW,2013-02-19 19:47:00,
2013-02-19 13:52:00,22.7,3.0,30.22,NNW,338,4.7,8.9,42,0.00,,,0.00,WUHU216HW,2013-02-19 19:52:00,
2013-02-19 13:57:00,22.7,3.4,30.21,NW,315,5.4,9.2,43,0.00,,,0.00,WUHU216HW,2013-02-19 19:57:00,
2013-02-19 14:02:00,23.2,3.5,30.21,WSW,248,3.8,9.2,42,0.00,,,0.00,WUHU216HW,2013-02-19 20:02:00,
2013-02-19 14:07:00,23.4,3.6,30.21,WNW,293,3.1,9.2,42,0.00,,,0.00,WUHU216HW,2013-02-19 20:07:00,
2013-02-19 14:12:00,23.2,2.5,30.21,NNW,338,5.1,9.2,40,0.00,,,0.00,WUHU216HW,2013-02-19 20:12:00,
2013-02-19 14:17:00,23.0,3.3,30.22,NNE,23,6.9,7.6,42,0.00,,,0.00,WUHU216HW,2013-02-19 20:17:00,
2013-02-19 14:22:00,23.4,3.2,30.22,WSW,248,5.4,7.2,41,0.00,,,0.00,WUHU216HW,2013-02-19 20:22:00,
2013-02-19 14:27:00,23.6,3.3,30.21,NNW,338,5.8,7.8,41,0.00,,,0.00,WUHU216HW,2013-02-19 20:27:00,
2013-02-19 14:32:00,23.8,2.3,30.21,NNW,338,7.4,7.8,39,0.00,,,0.00,WUHU216HW,2013-02-19 20:32:00,
2013-02-19 14:37:00,23.8,3.5,30.21,North,0,3.6,8.5,41,0.00,,,0.00,WUHU216HW,2013-02-19 20:37:00,
2013-02-19 14:42:00,23.9,1.9,30.21,WNW,293,4.5,8.5,38,0.00,,,0.00,WUHU216HW,2013-02-19 20:42:00,
2013-02-19 14:47:00,23.8,1.2,30.21,SSW,203,4.7,7.6,37,0.00,,,0.00,WUHU216HW,2013-02-19 20:47:00,
2013-02-19 14:52:00,23.6,1.0,30.21,NNW,338,4.9,7.6,37,0.00,,,0.00,WUHU216HW,2013-02-19 20:52:00,
2013-02-19 14:57:00,24.1,1.4,30.21,North,0,3.4,7.6,37,0.00,,,0.00,WUHU216HW,2013-02-19 20:57:00,
2013-02-19 15:02:00,24.1,1.4,30.21,West,270,4.0,8.1,37,0.00,,,0.00,WUHU216HW,2013-02-19 21:02:00,
2013-02-19 15:07:00,23.8,1.8,30.22,NNW,338,4.3,8.1,38,0.00,,,0.00,WUHU216HW,2013-02-19 21:07:00,
2013-02-19 15:12:00,24.1,2.7,30.21,North,0,3.8,8.3,39,0.00,,,0.00,WUHU216HW,2013-02-19 21:12:00,
2013-02-19 15:17:00,24.5,3.1,30.22,WSW,248,2.5,8.3,39,0.00,,,0.00,WUHU216HW,2013-02-19 21:17:00,
2013-02-19 15:22:00,24.5,1.8,30.22,West,270,6.3,8.3,37,0.00,,,0.00,WUHU216HW,2013-02-19 21:22:00,
2013-02-19 15:27:00,24.7,3.2,30.22,WNW,293,8.5,8.5,39,0.00,,,0.00,WUHU216HW,2013-02-19 21:27:00,
2013-02-19 15:32:00,24.5,2.4,30.22,WSW,248,2.7,8.5,38,0.00,,,0.00,WUHU216HW,2013-02-19 21:32:00,
2013-02-19 15:37:00,23.9,0.7,30.22,West,270,4.0,8.5,36,0.00,,,0.00,WUHU216HW,2013-02-19 21:37:00,
2013-02-19 15:42:00,23.9,0.7,30.22,NNE,23,9.2,9.2,36,0.00,,,0.00,WUHU216HW,2013-02-19 21:42:00,
2013-02-19 15:47:00,24.3,1.6,30.22,NW,315,4.7,9.2,37,0.00,,,0.00,WUHU216HW,2013-02-19 21:47:00,
2013-02-19 15:52:00,24.5,1.8,30.22,West,270,1.3,9.2,37,0.00,,,0.00,WUHU216HW,2013-02-19 21:52:00,
2013-02-19 15:57:00,24.1,0.9,30.22,South,180,3.6,6.9,36,0.00,,,0.00,WUHU216HW,2013-02-19 21:57:00,
2013-02-19 16:02:00,24.1,0.9,30.22,WNW,293,7.6,7.6,36,0.00,,,0.00,WUHU216HW,2013-02-19 22:02:00,
2013-02-19 16:07:00,24.5,1.2,30.22,West,270,1.1,7.6,36,0.00,,,0.00,WUHU216HW,2013-02-19 22:07:00,
2013-02-19 16:12:00,24.3,1.0,30.22,WNW,293,3.8,6.7,36,0.00,,,0.00,WUHU216HW,2013-02-19 22:12:00,
2013-02-19 16:17:00,24.1,0.9,30.22,NW,315,5.6,6.7,36,0.00,,,0.00,WUHU216HW,2013-02-19 22:17:00,
2013-02-19 16:22:00,23.9,0.1,30.22,North,0,3.4,6.7,35,0.00,,,0.00,WUHU216HW,2013-02-19 22:22:00,
2013-02-19 16:27:00,23.8,-0.1,30.22,NW,315,4.7,6.3,35,0.00,,,0.00,WUHU216HW,2013-02-19 22:27:00,
2013-02-19 16:32:00,23.9,1.4,30.22,NNW,338,2.9,6.3,37,0.00,,,0.00,WUHU216HW,2013-02-19 22:32:00,
2013-02-19 16:37:00,24.1,1.4,30.22,NW,315,4.5,6.3,37,0.00,,,0.00,WUHU216HW,2013-02-19 22:37:00,
2013-02-19 16:42:00,23.8,0.5,30.22,NNW,338,6.3,7.6,36,0.00,,,0.00,WUHU216HW,2013-02-19 22:42:00,
2013-02-19 16:47:00,23.6,0.4,30.21,NW,315,4.9,7.6,36,0.00,,,0.00,WUHU216HW,2013-02-19 22:47:00,
2013-02-19 16:52:00,23.4,0.2,30.21,WNW,293,4.7,7.4,36,0.00,,,0.00,WUHU216HW,2013-02-19 22:52:00,
2013-02-19 16:57:00,23.4,0.2,30.21,NNE,23,7.6,7.6,36,0.00,,,0.00,WUHU216HW,2013-02-19 22:57:00,
2013-02-19 17:02:00,23.2,0.1,30.21,NNW,338,6.7,7.6,36,0.00,,,0.00,WUHU216HW,2013-02-19 23:02:00,
2013-02-19 17:07:00,23.0,0.6,30.21,North,0,1.8,7.6,37,0.00,,,0.00,WUHU216HW,2013-02-19 23:07:00,
2013-02-19 17:12:00,23.0,0.6,30.21,SSW,203,4.3,8.3,37,0.00,,,0.00,WUHU216HW,2013-02-19 23:12:00,
2013-02-19 17:17:00,22.7,0.2,30.21,NNW,338,5.4,8.3,37,0.00,,,0.00,WUHU216HW,2013-02-19 23:17:00,
2013-02-19 17:22:00,22.7,0.8,30.21,SW,225,2.5,7.6,38,0.00,,,0.00,WUHU216HW,2013-02-19 23:22:00,
2013-02-19 17:27:00,22.5,0.6,30.21,NNE,23,2.7,6.5,38,0.00,,,0.00,WUHU216HW,2013-02-19 23:27:00,
2013-02-19 17:32:00,22.3,-0.2,30.21,WNW,293,4.5,6.5,37,0.00,,,0.00,WUHU216HW,2013-02-19 23:32:00,
2013-02-19 17:37:00,22.1,-0.3,30.21,WNW,293,3.4,6.0,37,0.00,,,0.00,WUHU216HW,2013-02-19 23:37:00,
2013-02-19 17:42:00,22.0,0.7,30.21,NNW,338,0.4,6.0,39,0.00,,,0.00,WUHU216HW,2013-02-19 23:42:00,
2013-02-19 17:47:00,21.8,0.6,30.21,East,90,2.0,5.1,39,0.00,,,0.00,WUHU216HW,2013-02-19 23:47:00,
2013-02-19 17:52:00,21.4,0.9,30.21,West,270,4.0,5.1,40,0.00,,,0.00,WUHU216HW,2013-02-19 23:52:00,
2013-02-19 17:57:00,21.2,0.7,30.21,NNE,23,3.6,4.9,40,0.00,,,0.00,WUHU216HW,2013-02-19 23:57:00,
2013-02-19 18:02:00,21.1,1.0,30.21,ENE,68,2.7,4.7,41,0.00,,,0.00,WUHU216HW,2013-02-20 00:02:00,
2013-02-19 18:07:00,20.9,0.9,30.21,NNW,338,1.8,4.5,41,0.00,,,0.00,WUHU216HW,2013-02-20 00:07:00,
2013-02-19 18:12:00,20.5,1.0,30.21,North,0,4.0,4.7,42,0.00,,,0.00,WUHU216HW,2013-02-20 00:12:00,
2013-02-19 18:17:00,20.3,0.8,30.22,WNW,293,2.2,4.9,42,0.00,,,0.00,WUHU216HW,2013-02-20 00:17:00,
2013-02-19 18:22:00,20.0,1.0,30.22,NNE,23,5.1,5.1,43,0.00,,,0.00,WUHU216HW,2013-02-20 00:22:00,
2013-02-19 18:27:00,19.8,0.8,30.22,NNW,338,3.4,6.3,43,0.00,,,0.00,WUHU216HW,2013-02-20 00:27:00,
2013-02-19 18:32:00,19.6,0.6,30.22,NW,315,4.9,6.7,43,0.00,,,0.00,WUHU216HW,2013-02-20 00:32:00,
2013-02-19 18:37:00,19.4,1.0,30.22,WNW,293,3.4,6.7,44,0.00,,,0.00,WUHU216HW,2013-02-20 00:37:00,
2013-02-19 18:42:00,19.1,1.1,30.22,West,270,1.6,4.9,45,0.00,,,0.00,WUHU216HW,2013-02-20 00:42:00,
2013-02-19 18:47:00,18.9,1.5,30.23,NNW,338,1.3,4.7,46,0.00,,,0.00,WUHU216HW,2013-02-20 00:47:00,
2013-02-19 18:52:00,18.7,1.7,30.23,WNW,293,1.1,4.7,47,0.00,,,0.00,WUHU216HW,2013-02-20 00:52:00,
2013-02-19 18:57:00,18.5,1.5,30.23,NW,315,1.8,4.7,47,0.00,,,0.00,WUHU216HW,2013-02-20 00:57:00,
2013-02-19 19:02:00,18.4,1.9,30.23,NW,315,2.0,4.5,48,0.00,,,0.00,WUHU216HW,2013-02-20 01:02:00,
2013-02-19 19:07:00,18.0,2.0,30.23,WNW,293,1.1,3.4,49,0.00,,,0.00,WUHU216HW,2013-02-20 01:07:00,
2013-02-19 19:12:00,17.6,2.2,30.22,North,0,1.8,3.6,50,0.00,,,0.00,WUHU216HW,2013-02-20 01:12:00,
2013-02-19 19:17:00,17.6,2.2,30.23,North,0,1.8,3.6,50,0.00,,,0.00,WUHU216HW,2013-02-20 01:17:00,
2013-02-19 19:22:00,17.3,2.3,30.22,NW,315,0.4,2.5,51,0.00,,,0.00,WUHU216HW,2013-02-20 01:22:00,
2013-02-19 19:27:00,16.9,2.3,30.23,NW,315,0.7,2.2,52,0.00,,,0.00,WUHU216HW,2013-02-20 01:27:00,
2013-02-19 19:32:00,16.9,2.3,30.23,NNE,23,2.5,3.8,52,0.00,,,0.00,WUHU216HW,2013-02-20 01:32:00,
2013-02-19 19:37:00,16.7,2.5,30.23,WNW,293,2.5,3.8,53,0.00,,,0.00,WUHU216HW,2013-02-20 01:37:00,
2013-02-19 19:42:00,16.6,2.7,30.23,NW,315,1.3,3.4,54,0.00,,,0.00,WUHU216HW,2013-02-20 01:42:00,
2013-02-19 19:47:00,16.6,2.7,30.23,NNW,338,1.3,2.7,54,0.00,,,0.00,WUHU216HW,2013-02-20 01:47:00,
2013-02-19 19:52:00,16.4,2.5,30.23,North,0,0.7,2.7,54,0.00,,,0.00,WUHU216HW,2013-02-20 01:52:00,
2013-02-19 19:57:00,16.2,2.8,30.23,NW,315,1.8,2.7,55,0.00,,,0.00,WUHU216HW,2013-02-20 01:57:00,
2013-02-19 20:02:00,16.2,2.8,30.24,WNW,293,0.4,3.4,55,0.00,,,0.00,WUHU216HW,2013-02-20 02:02:00,
2013-02-19 20:07:00,16.0,3.0,30.24,WNW,293,2.2,3.4,56,0.00,,,0.00,WUHU216HW,2013-02-20 02:07:00,
2013-02-19 20:12:00,15.8,2.8,30.24,West,270,0.7,3.4,56,0.00,,,0.00,WUHU216HW,2013-02-20 02:12:00,
2013-02-19 20:17:00,15.7,3.1,30.24,NNE,23,1.3,4.5,57,0.00,,,0.00,WUHU216HW,2013-02-20 02:17:00,
2013-02-19 20:22:00,15.5,3.3,30.24,NW,315,4.0,4.5,58,0.00,,,0.00,WUHU216HW,2013-02-20 02:22:00,
2013-02-19 20:27:00,15.1,2.9,30.23,NNE,23,1.8,4.0,58,0.00,,,0.00,WUHU216HW,2013-02-20 02:27:00,
2013-02-19 20:32:00,14.8,2.6,30.24,NNE,23,2.2,3.4,58,0.00,,,0.00,WUHU216HW,2013-02-20 02:32:00,
2013-02-19 20:37:00,14.4,2.6,30.24,NNE,23,1.3,3.4,59,0.00,,,0.00,WUHU216HW,2013-02-20 02:37:00,
2013-02-19 20:42:00,14.0,2.4,30.23,North,0,2.5,3.6,59,0.00,,,0.00,WUHU216HW,2013-02-20 02:42:00,
2013-02-19 20:47:00,14.0,2.7,30.23,East,90,3.4,3.6,60,0.00,,,0.00,WUHU216HW,2013-02-20 02:47:00,
2013-02-19 20:52:00,14.0,2.7,30.23,NNE,23,4.5,4.9,60,0.00,,,0.00,WUHU216HW,2013-02-20 02:52:00,
2013-02-19 20:57:00,14.0,2.7,30.23,NNE,23,3.4,5.1,60,0.00,,,0.00,WUHU216HW,2013-02-20 02:57:00,
2013-02-19 21:02:00,13.9,2.5,30.24,NNE,23,2.5,5.1,60,0.00,,,0.00,WUHU216HW,2013-02-20 03:02:00,
2013-02-19 21:07:00,13.9,2.9,30.24,NNW,338,1.8,4.7,61,0.00,,,0.00,WUHU216HW,2013-02-20 03:07:00,
2013-02-19 21:12:00,13.7,2.7,30.24,NNE,23,1.3,3.4,61,0.00,,,0.00,WUHU216HW,2013-02-20 03:12:00,
2013-02-19 21:17:00,13.7,2.7,30.25,South,180,0.9,3.6,61,0.00,,,0.00,WUHU216HW,2013-02-20 03:17:00,
2013-02-19 21:22:00,13.3,2.4,30.25,NNE,23,1.8,3.6,61,0.00,,,0.00,WUHU216HW,2013-02-20 03:22:00,
2013-02-19 21:27:00,13.1,2.2,30.26,WSW,248,0.2,3.1,61,0.00,,,0.00,WUHU216HW,2013-02-20 03:27:00,
2013-02-19 21:32:00,13.0,2.4,30.26,WNW,293,2.0,2.2,62,0.00,,,0.00,WUHU216HW,2013-02-20 03:32:00,
2013-02-19 21:37:00,13.0,2.4,30.26,North,0,0.7,2.2,62,0.00,,,0.00,WUHU216HW,2013-02-20 03:37:00,
2013-02-19 21:42:00,12.6,2.0,30.26,North,0,0.7,2.2,62,0.00,,,0.00,WUHU216HW,2013-02-20 03:42:00,
2013-02-19 21:47:00,12.4,2.1,30.27,WNW,293,0.2,2.2,63,0.00,,,0.00,WUHU216HW,2013-02-20 03:47:00,
2013-02-19 21:52:00,12.2,2.3,30.27,WNW,293,0.0,1.1,64,0.00,,,0.00,WUHU216HW,2013-02-20 03:52:00,
2013-02-19 21:57:00,12.1,1.8,30.26,NNE,23,0.0,1.1,63,0.00,,,0.00,WUHU216HW,2013-02-20 03:57:00,
2013-02-19 22:02:00,11.9,1.9,30.27,WNW,293,2.2,2.2,64,0.00,,,0.00,WUHU216HW,2013-02-20 04:02:00,
2013-02-19 22:07:00,11.9,1.9,30.27,NNW,338,0.2,2.2,64,0.00,,,0.00,WUHU216HW,2013-02-20 04:07:00,
2013-02-19 22:12:00,11.7,1.8,30.27,NNW,338,0.0,1.8,64,0.00,,,0.00,WUHU216HW,2013-02-20 04:12:00,
2013-02-19 22:17:00,11.7,2.1,30.28,West,270,2.5,2.5,65,0.00,,,0.00,WUHU216HW,2013-02-20 04:17:00,
2013-02-19 22:22:00,11.7,1.8,30.28,West,270,0.0,2.5,64,0.00,,,0.00,WUHU216HW,2013-02-20 04:22:00,
2013-02-19 22:27:00,11.5,1.6,30.28,WNW,293,0.9,2.5,64,0.00,,,0.00,WUHU216HW,2013-02-20 04:27:00,
2013-02-19 22:32:00,11.3,1.5,30.28,WNW,293,0.0,0.9,64,0.00,,,0.00,WUHU216HW,2013-02-20 04:32:00,
2013-02-19 22:37:00,11.2,1.6,30.27,NW,315,0.0,0.9,65,0.00,,,0.00,WUHU216HW,2013-02-20 04:37:00,
2013-02-19 22:42:00,11.2,1.9,30.27,NNW,338,0.2,1.1,66,0.00,,,0.00,WUHU216HW,2013-02-20 04:42:00,
2013-02-19 22:47:00,10.8,1.5,30.27,NNE,23,0.4,2.5,66,0.00,,,0.00,WUHU216HW,2013-02-20 04:47:00,
2013-02-19 22:52:00,10.4,0.9,30.27,NNE,23,1.3,2.5,65,0.00,,,0.00,WUHU216HW,2013-02-20 04:52:00,
2013-02-19 22:57:00,10.4,1.3,30.27,NE,45,2.2,3.4,66,0.00,,,0.00,WUHU216HW,2013-02-20 04:57:00,
2013-02-19 23:00:00,10.4,1.5,30.27,NNE,23,3.8,3.8,67,0.00,,,0.00,WUHU216HW,2013-02-20 05:00:00,
2013-02-19 23:05:00,10.6,2.1,30.28,WNW,293,1.8,3.8,68,0.00,,,0.00,WUHU216HW,2013-02-20 05:05:00,
2013-02-19 23:10:00,10.8,1.9,30.29,WNW,293,3.1,4.7,67,0.00,,,0.00,WUHU216HW,2013-02-20 05:10:00,
2013-02-19 23:15:00,10.6,2.1,30.29,WNW,293,1.1,4.7,68,0.00,,,0.00,WUHU216HW,2013-02-20 05:15:00,
2013-02-19 23:20:00,10.4,1.9,30.29,WNW,293,0.4,3.4,68,0.00,,,0.00,WUHU216HW,2013-02-20 05:20:00,
2013-02-19 23:25:00,10.3,1.7,30.29,NW,315,1.1,1.8,68,0.00,,,0.00,WUHU216HW,2013-02-20 05:25:00,
2013-02-19 23:30:00,10.1,1.5,30.29,North,0,0.4,2.5,68,0.00,,,0.00,WUHU216HW,2013-02-20 05:30:00,
2013-02-19 23:35:00,9.7,0.9,30.28,ENE,68,1.1,2.5,67,0.00,,,0.00,WUHU216HW,2013-02-20 05:35:00,
2013-02-19 23:40:00,9.5,1.7,30.28,SW,225,1.3,2.0,70,0.00,,,0.00,WUHU216HW,2013-02-20 05:40:00,
2013-02-19 23:45:00,9.5,1.7,30.29,West,270,0.9,2.7,70,0.00,,,0.00,WUHU216HW,2013-02-20 05:45:00,
2013-02-19 23:50:00,9.4,1.5,30.29,West,270,0.2,2.7,70,0.00,,,0.00,WUHU216HW,2013-02-20 05:50:00,
2013-02-19 23:55:00,9.2,1.4,30.29,WNW,293,1.1,2.2,70,0.00,,,0.00,WUHU216HW,2013-02-20 05:55:00,